Theta_e
313 316 317 316 317 317 316 315 313 312 313 316 317 316 315 315 313 314 315 310 308 312 316 316 316 316 316 316 316 316 314 312 312 312 313 313 313 314 314 314 314 314 314 314 311 309 308 307 306 307 307 308 310 311 311 312 312 312 311 311 311 311 312 313 313 315 318 318 319 320 320 321 322 323 322 324 326 326 326 326 328 328 328 328 328 329
313 316 317 316 314 314 313 312 312 312 313 315 315 315 316 316 315 314 313 310 308 312 315 315 315 315 316 316 316 316 315 314 313 314 314 315 315 315 315 315 315 314 315 314 312 309 307 307 306 305 306 307 309 310 311 312 312 312 311 310 311 311 312 314 314 316 317 318 319 320 319 320 321 322 322 322 324 325 325 326 326 326 325 326 327 328
316 316 315 313 310 310 310 310 312 313 314 315 315 315 314 315 315 312 311 310 309 312 315 315 314 315 316 316 316 315 315 315 315 315 315 315 315 316 316 316 316 315 315 314 313 311 308 307 306 305 306 307 309 310 311 312 312 312 311 310 311 311 312 314 315 316 317 317 319 319 320 320 321 322 322 322 322 323 325 325 325 324 324 325 325 325
315 315 313 309 309 311 310 310 312 313 314 316 316 315 314 317 315 311 311 311 310 311 313 314 314 315 316 316 317 316 316 315 315 314 314 314 315 315 316 316 316 315 315 314 313 312 309 308 307 306 306 307 309 311 311 312 312 312 311 311 311 311 312 314 315 316 316 317 318 319 320 321 320 321 322 322 321 322 324 324 324 324 324 324 323 322
314 312 308 307 310 313 312 311 313 314 314 316 317 316 315 317 316 312 312 312 312 312 311 313 315 316 318 317 317 317 315 314 314 313 313 314 314 314 314 315 314 314 314 314 314 313 311 308 307 307 307 307 309 310 311 311 312 312 311 311 311 310 312 314 314 316 315 317 318 318 318 318 318 318 319 319 320 321 322 323 324 324 323 322 321 321
314 309 307 310 311 314 315 313 315 315 314 316 317 316 315 315 315 315 315 314 314 314 313 314 313 313 316 316 316 317 316 315 315 314 315 315 315 315 314 314 314 313 313 312 312 313 312 309 308 308 307 307 309 310 311 311 311 311 311 311 310 310 312 313 314 315 315 316 317 317 316 315 315 314 315 317 319 320 321 322 322 322 321 320 320 320
313 308 310 313 312 315 316 314 316 317 314 314 316 316 315 315 316 316 316 316 314 315 314 314 313 313 315 315 316 318 316 316 317 316 316 316 316 316 315 315 315 314 314 313 312 311 311 310 309 308 308 308 309 309 310 311 311 311 311 311 310 310 311 312 313 315 315 315 315 316 317 316 316 314 314 317 319 320 321 321 321 320 320 319 319 320
312 310 311 314 315 315 315 315 317 316 313 315 317 316 314 314 316 316 316 316 316 316 315 315 316 316 316 316 317 317 316 316 317 317 317 317 317 316 316 316 315 315 314 314 313 311 310 310 309 308 308 307 308 309 310 310 310 310 310 310 309 309 310 311 313 314 314 314 314 315 316 317 317 316 316 318 318 319 320 320 320 319 319 319 318 319
313 315 314 314 315 314 316 318 316 314 314 316 314 312 313 314 316 316 317 317 316 316 316 317 317 315 315 317 316 316 316 316 316 317 318 318 318 316 316 315 315 314 313 312 312 312 311 310 309 308 307 307 307 308 309 309 309 310 310 310 309 308 308 310 312 313 314 314 314 314 314 315 315 314 315 317 318 318 319 319 319 318 318 317 318 319
311 312 312 314 315 315 317 314 312 314 315 313 310 311 313 314 314 315 317 317 316 316 318 319 317 313 312 315 316 314 315 316 316 317 317 317 320 318 316 316 314 313 312 311 309 310 310 308 307 307 306 306 306 308 309 309 309 309 309 309 309 307 308 310 311 312 313 313 313 314 313 313 313 312 313 314 314 315 316 316 316 316 316 317 318 318
309 307 310 314 314 313 312 308 309 315 314 312 314 316 316 315 314 316 315 316 317 317 317 318 317 314 310 312 317 315 314 316 316 316 317 319 321 322 318 316 314 312 312 311 309 308 307 306 305 305 305 305 306 307 308 309 309 309 309 309 308 308 307 309 311 311 312 312 311 312 313 312 312 313 313 312 312 312 312 313 314 315 315 316 317 316
311 310 312 313 311 310 312 310 309 310 310 313 318 318 317 315 315 316 316 317 318 317 316 315 315 316 311 311 315 315 314 315 315 315 316 317 319 321 320 316 312 312 313 313 312 310 307 305 304 304 304 305 305 307 308 308 308 308 309 308 308 308 307 308 309 309 310 311 309 310 311 311 312 313 313 313 312 313 313 313 314 314 314 314 315 315
314 315 314 311 309 311 315 315 312 310 311 315 318 317 315 314 314 316 317 318 318 315 313 311 314 316 314 313 315 315 315 315 315 315 316 317 317 318 319 317 314 314 313 312 313 312 309 307 306 305 305 305 306 307 308 308 308 308 308 308 308 308 307 307 308 308 308 309 309 309 309 309 310 311 312 312 313 314 315 315 315 315 314 314 314 315
314 316 314 313 312 312 315 316 314 314 314 315 318 317 314 314 315 316 316 313 313 313 310 309 313 317 315 315 316 315 315 316 315 315 316 316 315 316 316 315 314 313 313 311 311 312 311 309 308 306 305 305 306 307 307 308 308 308 308 308 308 308 307 305 306 307 307 307 308 308 308 308 309 309 311 312 312 314 316 316 316 315 314 314 315 316
314 314 314 314 315 314 315 316 317 317 315 316 318 317 315 314 315 315 313 312 312 313 309 308 314 318 316 315 317 315 314 314 313 313 314 314 314 314 313 313 312 312 312 312 311 310 309 308 307 306 306 306 306 307 307 307 307 307 308 308 307 307 307 305 305 305 305 305 306 307 307 308 309 310 311 312 312 313 315 315 315 315 315 315 316 316
314 314 314 315 315 314 315 317 319 318 316 316 316 315 316 315 312 311 312 311 311 313 312 311 314 316 315 315 315 314 314 315 315 312 312 314 313 312 314 314 312 312 312 312 312 311 308 307 306 305 305 305 306 307 307 307 307 307 307 307 307 307 307 305 304 305 305 305 307 308 308 308 310 311 311 311 311 311 312 313 313 314 315 315 315 316
313 313 314 313 313 313 314 316 317 316 315 314 315 316 315 316 314 313 311 310 310 313 314 314 314 313 313 314 314 314 315 317 317 315 315 317 315 314 318 318 314 313 313 314 316 313 309 306 305 304 304 305 305 306 307 307 307 307 307 307 307 306 307 305 303 303 304 304 305 307 306 307 308 309 310 310 311 311 310 310 311 313 314 313 312 313
313 313 313 312 313 312 309 313 316 316 315 314 315 317 314 314 315 313 313 313 313 315 315 315 315 313 312 314 314 314 315 315 316 315 316 318 317 319 322 320 316 314 313 314 314 310 307 305 304 304 304 304 305 306 307 307 307 307 306 307 306 306 306 305 303 303 303 302 303 304 303 304 306 308 309 309 310 310 310 309 310 311 311 310 309 310
313 313 315 311 312 312 309 312 315 314 313 313 314 315 314 315 316 314 314 315 315 316 316 316 314 312 313 314 314 314 315 315 316 316 316 316 316 319 320 319 318 315 315 317 315 310 308 306 304 304 303 303 304 305 306 306 306 306 306 306 306 305 306 305 303 302 302 302 302 302 302 302 304 306 307 308 307 308 308 308 309 310 309 308 307 307
312 312 315 310 309 312 312 313 316 315 313 312 312 313 313 314 316 316 314 313 314 315 315 315 314 312 314 315 314 313 315 315 316 318 319 317 316 318 319 320 320 316 319 324 321 316 312 306 304 304 303 303 303 303 305 306 306 306 305 305 305 305 305 305 303 302 301 301 301 301 301 301 303 305 306 306 305 306 307 308 309 309 309 307 306 306
312 310 313 313 310 313 314 315 316 316 314 313 313 314 313 313 314 314 314 313 313 314 313 314 314 311 313 317 315 313 315 315 316 319 321 320 319 320 319 319 319 317 321 326 322 318 313 306 303 303 302 301 302 302 303 305 305 305 305 305 304 304 304 304 303 302 301 300 300 300 300 301 302 304 305 304 304 304 306 307 308 309 308 306 306 306
313 311 313 315 313 314 316 317 316 317 317 315 314 315 315 315 314 315 316 314 312 313 314 314 314 313 315 319 316 313 315 316 317 318 320 322 322 322 320 315 313 317 320 320 318 317 312 306 303 301 300 300 300 301 302 303 304 305 305 304 304 304 304 303 302 301 301 301 300 300 301 301 302 303 303 302 302 303 303 304 306 306 305 304 304 304
315 313 313 316 316 317 316 312 309 313 318 317 315 315 315 316 315 316 317 315 313 314 313 313 315 315 317 322 319 316 317 316 315 316 318 320 319 318 320 315 311 313 315 313 314 313 308 304 303 301 300 300 300 300 301 302 303 304 304 304 303 303 303 303 302 301 301 300 300 300 301 301 301 302 301 300 300 301 301 302 304 304 302 301 302 302
314 314 313 315 317 318 316 311 309 310 314 315 315 314 314 315 316 316 316 315 315 316 314 315 317 316 319 326 320 315 315 315 314 313 313 317 316 314 319 320 314 312 312 311 312 309 304 301 301 301 301 301 300 301 301 301 302 303 303 303 303 303 303 303 302 300 300 300 299 299 299 299 299 299 299 299 299 299 299 300 302 302 300 300 300 299
315 317 315 315 316 317 316 315 314 312 312 314 315 315 314 316 316 315 314 313 315 318 318 317 318 316 320 324 316 311 313 315 314 311 309 314 318 315 317 319 314 311 312 313 310 307 304 302 301 301 301 301 301 301 300 301 301 302 302 302 302 302 302 302 301 300 300 299 298 297 297 298 297 297 298 298 298 298 298 300 301 300 299 299 297 295
317 320 316 315 317 318 317 318 318 317 314 314 316 317 316 316 315 314 315 315 316 318 319 318 317 316 317 318 315 313 315 315 314 313 310 312 314 314 316 319 314 313 317 315 311 310 307 302 301 301 301 301 301 300 300 300 300 300 301 301 301 301 301 301 301 300 299 298 297 297 297 297 296 296 297 297 297 297 298 299 299 297 297 298 296 293
321 322 317 316 317 317 317 318 318 318 317 315 317 318 316 316 316 315 316 317 317 317 318 317 317 317 316 316 316 316 316 316 315 315 315 314 313 313 315 315 311 312 316 314 311 312 309 304 302 302 301 300 300 300 300 300 300 300 300 300 300 301 300 300 300 299 298 297 297 297 297 296 296 297 297 297 297 297 297 298 297 295 295 297 296 293
321 319 317 318 317 316 317 317 318 319 319 317 318 318 317 316 317 317 317 317 317 318 318 318 318 318 317 315 316 316 317 316 315 315 315 315 313 313 314 312 311 315 315 311 310 311 309 307 307 306 303 300 300 299 299 299 299 299 300 300 300 300 300 299 299 298 297 297 296 297 297 297 297 297 297 297 297 297 296 296 296 295 294 294 294 293
320 317 318 320 317 316 316 316 317 318 318 317 318 318 318 316 316 317 317 317 317 318 318 318 319 319 317 316 316 316 316 316 315 316 316 314 313 314 314 313 315 317 314 311 312 311 308 310 314 312 305 300 299 299 298 299 299 298 299 299 299 299 299 299 298 297 296 296 296 296 296 297 298 298 297 296 295 294 294 295 295 294 293 293 293 292
319 317 318 319 318 318 317 317 317 317 316 316 317 317 317 317 316 316 316 317 317 318 317 317 319 318 317 316 316 316 316 316 315 317 316 315 316 317 317 317 317 318 315 313 314 314 311 310 311 308 304 300 300 299 298 298 298 298 298 298 298 298 298 298 298 297 296 295 295 295 295 295 296 296 296 295 294 293 293 293 293 292 292 292 291 289
317 318 318 318 318 318 318 317 318 318 317 317 316 317 317 317 317 317 317 317 317 318 317 318 319 318 316 316 316 316 317 316 315 316 315 316 318 318 318 319 318 320 319 315 314 314 312 309 306 306 305 303 301 300 299 299 298 298 298 298 298 298 297 297 297 296 295 295 295 295 295 294 294 294 293 293 292 292 292 291 290 290 290 289 287 286
315 317 317 317 318 319 318 318 318 318 317 317 316 317 317 316 317 316 316 316 317 318 318 318 319 318 316 316 316 316 317 316 314 315 315 316 317 317 318 319 318 319 318 317 316 315 314 311 310 310 310 305 302 301 300 299 298 298 298 298 297 297 297 297 296 296 295 295 294 294 294 293 293 292 292 292 291 291 291 290 289 288 287 287 286 286
314 315 315 317 319 319 319 319 318 318 318 318 317 317 317 316 317 316 316 316 316 316 317 318 318 317 316 317 316 316 317 316 314 315 316 316 316 316 317 318 317 317 317 317 317 317 316 315 312 310 309 306 304 303 302 301 299 299 298 298 297 296 296 296 295 295 295 294 294 293 293 292 292 291 291 290 290 290 290 289 288 287 286 286 286 286
314 316 315 316 318 319 319 319 318 319 320 321 320 318 317 317 317 317 317 316 315 315 315 316 316 316 316 316 316 316 316 316 315 315 315 315 316 316 316 316 316 316 317 318 317 317 316 314 311 308 307 306 305 304 302 301 300 299 298 297 296 296 296 295 294 294 294 294 293 293 292 292 291 291 290 290 289 288 288 287 287 287 287 286 285 285
314 314 315 316 317 318 318 318 319 321 322 321 319 317 317 316 316 317 317 316 315 315 315 315 315 315 315 315 316 316 316 316 316 315 314 314 315 316 316 316 316 316 317 317 316 315 314 311 309 307 305 304 304 303 302 301 299 298 297 296 296 295 294 294 294 294 294 293 293 292 292 291 291 290 289 289 288 287 286 286 286 286 285 285 285 285
314 314 315 316 317 317 318 319 321 322 320 320 320 318 316 316 317 318 319 318 316 316 316 316 315 314 315 315 315 315 315 316 316 314 313 313 314 315 316 317 316 315 315 315 314 313 312 310 307 306 304 303 302 301 301 299 298 296 295 295 295 294 294 294 293 293 293 293 292 292 291 291 290 290 289 288 288 287 286 286 285 285 285 284 285 285
315 315 315 316 317 318 319 319 320 320 320 320 319 318 317 316 316 318 319 319 316 316 316 316 315 315 315 315 315 315 315 315 315 314 313 313 313 314 314 314 314 314 314 313 311 310 308 306 305 303 302 301 300 300 299 297 296 295 294 294 293 293 293 293 292 292 292 292 292 291 291 291 290 289 289 288 287 287 286 286 285 285 285 284 284 284
314 315 316 317 317 317 318 319 319 320 320 319 318 317 317 317 316 317 319 319 318 317 316 316 316 316 316 316 316 315 314 314 315 315 315 315 314 313 312 311 311 312 310 308 306 304 303 302 302 301 300 299 298 297 297 296 295 294 293 293 292 292 292 292 291 292 291 291 291 291 291 291 290 289 289 288 287 287 286 286 285 285 285 284 284 284
314 314 314 316 317 317 318 319 320 319 319 319 319 318 318 319 318 317 319 319 318 317 317 316 316 316 316 316 316 315 315 315 315 315 316 316 313 312 311 311 310 307 304 301 301 300 300 300 299 298 298 297 295 295 295 294 294 293 292 292 291 291 291 291 291 291 291 291 291 291 291 290 290 289 289 288 287 287 286 286 285 285 285 284 284 284
315 313 313 315 316 316 318 319 319 318 319 322 323 319 316 316 316 319 321 321 318 317 317 316 315 316 316 315 315 315 315 315 315 316 317 313 311 309 309 309 308 305 299 297 297 297 297 297 296 295 294 294 294 293 294 293 293 292 291 291 291 291 291 291 291 291 291 291 291 290 290 290 289 289 289 288 287 287 286 286 285 284 284 284 284 284
315 315 315 316 316 316 316 317 318 317 319 322 323 318 314 314 317 320 321 320 318 319 319 316 315 316 315 314 315 314 314 314 315 315 313 310 309 308 303 299 299 298 296 294 294 294 294 293 293 293 292 292 293 292 292 292 292 291 290 290 290 290 291 291 291 291 291 290 290 290 290 289 289 289 288 288 287 286 286 286 285 285 284 284 284 284
316 316 316 317 317 317 316 317 317 317 320 321 319 315 313 316 319 320 319 319 321 322 321 318 315 315 314 314 315 314 314 314 314 312 311 310 309 305 299 295 295 294 292 292 291 292 292 291 291 291 291 291 291 291 291 292 291 290 290 290 290 290 291 291 291 290 290 290 290 289 289 289 289 288 288 288 287 287 286 285 285 285 284 284 284 283
316 316 316 317 317 317 317 318 317 318 321 320 316 312 313 316 319 319 318 321 323 323 323 320 314 313 314 314 314 314 313 312 311 309 308 306 303 300 297 295 296 294 292 291 291 290 291 290 290 289 289 289 290 290 291 291 290 289 289 290 290 290 291 291 290 290 290 290 289 289 288 288 288 288 288 287 287 287 286 285 284 284 284 284 284 283
314 316 316 316 317 318 318 319 319 318 319 316 314 314 314 314 319 322 320 318 318 318 319 316 312 311 312 313 313 312 310 309 307 305 304 301 297 296 295 293 294 293 292 291 290 290 290 289 289 288 288 289 289 290 291 291 290 289 289 289 290 290 290 290 290 290 289 289 288 288 287 287 287 287 287 287 286 286 285 285 284 284 284 284 284 283
313 315 314 313 314 315 315 316 316 316 315 313 312 315 315 313 316 320 318 316 316 314 312 312 312 312 310 310 312 311 309 307 304 302 303 300 296 294 293 293 292 292 291 290 289 288 289 289 288 288 287 288 289 290 290 292 291 289 288 289 290 290 290 289 289 289 288 288 288 287 287 287 287 287 287 286 286 286 285 285 284 284 284 284 284 283
312 312 310 311 313 314 314 314 312 312 313 312 311 313 315 315 314 313 312 314 316 312 308 309 312 313 310 308 310 311 309 306 303 300 299 298 295 293 292 291 291 290 290 289 288 287 288 288 287 287 287 287 288 289 290 291 292 291 289 289 290 289 289 289 288 288 288 287 287 287 286 286 286 286 286 286 286 286 286 285 285 284 284 283 283 283
310 308 307 310 312 312 314 314 311 310 310 310 309 309 310 310 309 307 306 309 313 312 309 308 308 308 307 307 309 311 308 305 304 301 297 295 293 292 291 290 290 289 289 288 287 287 287 287 287 286 286 286 287 288 289 290 291 291 290 289 289 289 289 289 288 287 287 287 286 286 286 286 285 285 285 285 285 285 286 286 285 285 284 283 283 283
308 306 306 307 308 310 311 311 309 308 308 309 310 310 309 308 307 305 303 305 307 307 305 305 304 304 305 307 308 308 307 305 305 302 298 294 292 291 290 290 289 289 288 287 287 286 287 287 286 286 285 284 286 288 289 289 290 290 290 289 289 289 288 288 288 287 287 287 286 286 286 286 286 285 285 285 285 285 285 285 285 285 285 285 284 284
306 305 305 306 306 307 308 307 306 306 307 310 312 312 309 308 309 308 305 304 305 305 304 304 303 301 302 305 305 306 308 307 303 300 298 294 292 291 290 289 288 287 287 286 286 287 287 286 285 285 284 284 286 287 288 289 289 289 289 288 288 288 288 288 287 287 287 287 286 286 286 286 286 285 285 285 284 285 285 285 286 286 286 286 286 286
304 304 304 305 305 305 306 307 307 307 307 308 311 313 311 309 308 308 307 305 305 305 305 306 304 300 298 299 300 302 307 306 300 297 297 294 291 290 289 288 287 286 286 286 286 286 286 285 284 283 282 283 285 287 288 288 288 288 288 288 288 288 288 287 287 287 286 286 286 286 285 285 285 285 285 285 284 284 284 285 285 285 285 285 284 284
302 302 303 304 305 305 306 306 308 309 308 307 309 311 311 309 308 308 308 307 306 305 303 303 303 302 300 298 296 297 301 302 298 296 296 293 291 289 288 286 286 286 285 285 285 285 284 284 283 282 281 283 285 287 288 288 288 288 288 288 288 288 288 288 287 286 286 286 286 286 286 286 285 285 285 285 285 284 283 282 282 282 282 282 282 282
Wind_Speed
1 2 4 4 3 5 6 3 4 5 4 4 3 1 1 3 3 2 1 2 1 5 7 7 11 15 14 12 14 12 6 8 12 13 12 11 10 10 10 11 10 11 11 7 6 9 11 15 19 22 25 27 27 28 28 28 27 26 24 23 23 22 22 22 23 24 25 26 26 26 25 25 24 24 24 24 23 22 23 25 26 26 25 23 23 24
2 4 5 2 2 2 4 6 6 5 3 3 2 2 2 4 4 1 2 1 1 3 5 3 9 16 15 13 13 11 10 12 13 14 14 13 12 11 11 13 12 10 8 7 8 9 11 14 18 20 24 27 28 29 30 28 26 24 24 24 24 24 25 24 24 26 27 27 29 28 28 28 27 27 26 24 23 22 22 24 25 25 24 22 24 25
3 6 3 4 6 6 6 5 5 3 2 2 1 2 3 3 3 1 2 2 1 3 5 3 7 14 16 15 15 14 14 15 14 14 14 13 13 13 12 12 11 10 9 10 10 9 11 14 17 20 22 26 28 27 27 26 23 23 24 25 23 24 27 26 26 27 27 27 28 28 28 28 27 28 28 26 24 24 24 25 25 25 23 23 24 26
4 3 2 6 7 7 6 3 4 3 2 3 2 3 3 0 1 2 1 2 2 3 5 6 7 12 15 14 15 15 13 12 12 12 12 12 14 16 14 11 10 12 12 12 10 9 10 13 16 19 21 24 24 22 23 24 23 23 25 25 23 25 28 29 28 28 28 28 28 27 26 26 26 26 28 27 26 26 26 27 27 25 24 25 25 26
2 1 3 6 5 6 6 5 6 5 3 3 4 5 4 2 2 2 2 1 3 2 2 7 8 8 9 9 11 8 4 6 8 8 10 12 13 13 13 12 12 13 13 12 11 8 9 12 15 18 20 21 21 22 24 26 26 25 24 25 25 28 30 30 29 29 29 29 29 28 25 24 24 24 26 27 27 28 29 30 29 26 25 25 25 26
2 3 5 7 3 4 6 5 7 6 4 3 5 9 9 4 1 1 2 2 3 2 1 3 6 4 2 5 10 5 3 7 5 6 11 12 11 10 11 12 11 12 12 11 11 8 8 11 14 16 18 20 21 23 25 26 25 24 23 24 25 28 31 30 30 31 31 30 31 30 28 26 26 26 27 29 30 30 30 29 27 25 25 25 26 27
1 3 3 6 6 5 5 4 5 6 4 2 2 5 7 2 1 1 1 2 4 2 1 1 5 6 4 9 14 9 10 13 7 8 13 12 10 10 10 10 9 9 9 8 9 9 9 11 12 14 18 20 21 22 22 23 23 22 22 23 25 28 31 31 32 33 33 32 32 32 30 30 30 29 29 29 29 30 29 28 26 25 26 27 29 29
4 5 3 4 6 6 5 4 5 8 5 1 1 1 4 4 4 3 2 3 3 3 2 3 3 6 7 9 10 8 10 14 12 12 13 10 10 11 10 10 9 9 7 6 7 8 9 11 12 14 16 19 20 19 20 22 23 23 21 22 26 28 30 32 33 33 34 33 33 32 31 30 31 31 30 29 28 29 29 28 27 27 28 31 32 30
3 6 8 8 6 5 5 0 5 11 5 1 1 1 3 3 3 3 2 2 1 4 4 4 4 5 8 5 2 1 6 10 13 14 11 8 7 7 8 8 7 6 5 5 6 6 7 9 11 12 13 17 19 18 19 22 23 23 21 22 24 26 29 32 32 33 34 33 33 32 30 30 30 28 27 28 29 29 29 29 29 29 30 32 32 29
1 2 4 7 6 5 3 4 1 8 3 3 5 5 6 5 4 3 0 1 1 5 5 6 8 5 9 5 6 3 4 8 11 10 6 5 4 4 4 4 4 3 3 3 4 5 5 6 7 9 11 13 16 17 19 20 21 22 21 21 22 23 28 32 32 32 34 33 33 33 31 30 29 26 25 26 28 29 29 30 31 31 31 31 31 29
1 1 1 2 2 2 5 6 3 0 4 7 7 5 7 5 3 2 1 1 1 6 3 8 10 5 8 5 7 5 2 4 7 7 4 3 2 2 1 1 2 1 1 1 2 3 3 3 4 7 10 12 14 16 17 19 20 21 21 21 22 22 26 31 32 32 34 34 33 33 32 30 28 27 26 26 27 29 30 31 31 31 30 29 30 30
1 1 1 1 1 3 6 6 5 3 3 4 4 4 4 2 1 2 1 1 4 6 1 3 4 5 8 6 4 2 2 3 5 7 8 5 3 1 1 0 2 1 1 1 1 2 2 3 4 6 9 11 14 16 18 19 19 20 20 21 22 22 24 30 33 33 34 35 34 33 31 30 28 28 28 28 30 31 31 32 32 31 30 29 29 30
2 3 2 2 0 3 6 7 5 2 1 2 3 6 5 3 2 3 3 3 5 4 2 3 1 4 11 11 6 9 12 12 9 9 11 9 7 5 2 2 2 2 2 2 2 2 2 3 5 7 10 12 14 16 18 19 19 20 21 22 23 23 24 28 33 34 34 35 35 34 32 30 29 29 30 31 31 32 33 34 33 31 31 30 30 30
3 1 3 5 2 4 8 7 5 4 5 6 7 7 6 5 4 5 3 1 4 2 2 2 1 4 10 10 9 14 16 13 8 9 10 9 10 8 3 3 4 4 5 4 4 4 4 4 6 8 10 11 13 15 18 19 20 21 22 23 24 24 24 26 32 35 34 35 35 34 33 32 31 30 31 32 32 33 34 35 34 34 33 32 31 31
7 4 6 9 4 6 11 7 4 6 7 7 4 3 5 6 5 5 3 2 3 1 2 1 2 6 6 2 3 8 10 8 6 6 6 7 10 8 5 7 8 8 7 5 5 6 6 6 7 8 8 10 11 14 17 19 20 21 22 24 24 24 24 25 30 33 33 34 35 34 34 34 33 32 32 33 33 33 34 33 34 35 35 34 32 32
6 5 3 3 1 9 11 3 3 6 5 3 1 1 5 4 2 1 1 1 1 1 2 3 4 6 5 6 8 8 9 6 4 4 5 8 9 5 7 9 7 7 7 4 5 7 6 7 7 7 8 9 11 13 16 18 19 20 20 22 23 23 24 25 29 33 33 34 35 35 35 35 34 33 32 33 33 32 31 32 34 35 35 34 34 33
3 3 2 2 1 5 4 0 2 2 3 4 3 5 3 1 2 2 1 2 2 4 4 4 6 7 6 10 10 11 13 9 4 5 6 8 6 4 8 7 3 4 6 5 6 5 5 6 8 9 10 11 13 14 17 17 18 20 19 20 22 22 23 24 27 32 33 32 35 36 36 35 35 34 33 33 33 31 30 32 34 34 34 35 34 34
3 2 1 1 2 1 2 1 2 3 1 4 5 5 2 2 1 2 4 1 3 6 4 4 8 8 6 6 3 3 9 10 9 10 9 8 6 6 9 5 2 4 6 6 6 4 4 6 8 11 11 13 15 16 17 18 18 19 19 20 22 23 25 26 26 31 33 32 34 35 35 35 35 35 34 34 33 32 32 33 34 34 34 34 34 34
2 3 1 1 1 1 2 2 3 1 2 1 1 2 2 2 4 4 4 4 5 6 3 4 7 6 8 8 4 4 8 9 11 11 10 11 10 9 9 5 4 5 5 5 5 4 4 6 9 11 11 12 14 15 16 17 17 18 20 20 23 24 25 26 26 29 31 32 34 35 34 35 35 35 35 35 34 33 33 33 34 34 34 34 34 34
2 5 3 1 2 1 2 5 7 5 2 2 1 1 0 3 3 3 3 2 5 6 4 4 4 5 8 7 6 11 12 11 10 9 8 10 10 9 8 5 4 5 5 4 3 3 4 6 8 9 10 11 13 14 15 16 17 19 21 21 22 23 23 25 25 25 28 32 34 34 33 34 35 36 35 35 34 33 33 34 35 34 33 34 36 36
3 4 3 1 1 2 5 6 8 9 8 5 6 6 4 2 0 2 2 1 2 4 4 4 5 8 6 4 7 11 11 10 11 8 7 7 8 7 6 4 3 4 5 3 2 2 3 4 7 8 9 11 13 14 15 16 17 19 20 21 22 22 23 24 24 25 29 32 33 34 34 35 36 36 35 34 34 34 34 35 35 33 33 35 37 37
4 4 4 3 3 6 5 1 2 5 7 7 8 9 10 8 5 4 5 2 1 3 2 2 6 9 5 3 6 9 7 7 8 7 7 7 7 4 2 3 4 4 4 2 2 2 1 3 6 9 11 12 14 15 16 17 17 18 19 20 21 22 23 23 24 28 33 34 34 35 36 36 37 36 35 34 33 34 34 34 33 32 32 34 36 36
3 2 5 4 4 4 1 3 1 3 2 3 4 5 6 6 7 8 6 3 2 2 1 0 5 10 5 3 3 5 4 3 3 5 7 7 5 3 1 3 5 5 4 2 2 2 2 4 5 7 10 12 13 14 16 18 18 18 19 19 20 22 23 23 23 28 34 35 36 37 37 36 36 35 34 34 34 34 34 33 32 31 32 33 34 35
3 1 4 4 2 1 2 2 1 1 1 4 4 2 2 5 7 4 1 1 3 4 3 3 6 10 5 2 2 3 2 3 3 5 7 6 5 5 4 3 4 5 5 4 3 3 2 4 6 6 8 10 12 14 17 18 19 19 19 20 21 22 23 22 22 25 31 34 35 36 37 36 35 34 34 34 34 35 34 34 33 32 32 34 35 35
4 3 4 5 4 3 3 3 3 2 3 4 4 4 6 8 5 2 1 2 3 6 9 8 8 10 4 3 1 3 3 6 7 5 6 6 6 6 4 3 4 5 4 3 4 4 3 5 7 6 7 8 11 14 16 18 20 21 21 22 22 22 23 23 24 27 30 33 34 35 36 35 34 34 34 35 35 35 35 34 33 33 33 34 34 34
4 3 5 6 7 8 7 6 4 4 5 3 4 7 10 11 10 5 3 5 6 9 11 9 9 13 9 2 3 5 4 6 8 6 5 7 8 6 4 3 4 4 4 4 4 4 3 6 8 7 7 8 10 13 16 19 21 22 21 22 24 25 24 24 27 29 31 32 34 35 35 35 35 35 35 35 35 35 35 35 34 33 33 34 34 34
1 1 5 8 9 10 10 5 0 4 6 7 9 9 10 13 14 10 5 7 10 10 11 11 13 18 19 11 7 6 5 6 8 6 5 6 7 7 5 4 4 3 3 3 3 3 5 8 9 7 7 9 10 13 18 20 22 22 21 22 26 26 25 26 29 30 31 33 34 35 36 36 36 36 36 35 36 36 35 35 34 34 33 33 34 34
3 4 8 10 11 13 13 7 2 5 7 10 12 12 12 12 13 12 11 13 13 10 12 14 14 17 22 20 15 10 6 6 7 6 5 5 5 5 3 2 4 5 5 4 5 7 8 9 8 6 8 9 11 14 18 20 22 23 24 24 25 27 27 28 30 31 31 33 34 35 36 37 37 37 36 35 36 35 35 35 34 34 33 33 34 35
4 6 8 8 11 16 17 11 4 5 6 6 10 12 13 13 14 15 17 20 17 13 13 14 14 17 20 22 20 14 8 7 7 6 4 4 4 5 3 3 6 7 7 7 8 9 9 9 8 7 8 9 12 14 16 18 20 21 23 24 25 27 29 29 30 31 31 32 33 34 36 37 37 37 35 35 34 34 34 34 34 33 33 34 35 36
3 4 8 9 10 15 18 16 11 10 9 9 10 10 9 13 16 18 20 22 20 17 15 16 19 21 21 22 19 12 6 7 7 4 3 3 5 6 6 7 8 8 8 8 8 8 9 9 8 7 7 9 13 16 17 18 21 22 23 24 25 27 28 29 30 30 30 31 32 33 34 35 35 35 35 34 34 34 34 34 33 33 33 34 34 34
3 5 8 8 7 12 17 18 17 14 13 15 14 9 9 13 17 20 21 17 15 17 19 21 22 21 20 19 16 10 4 4 6 7 7 7 7 7 8 9 9 8 7 8 8 8 8 8 8 7 7 10 15 18 20 21 22 22 23 25 27 27 27 30 30 28 29 30 31 32 33 33 33 34 34 34 34 34 33 32 32 32 33 33 33 34
5 5 4 6 6 10 13 16 18 15 11 12 14 14 16 18 17 16 15 14 15 17 19 18 16 16 18 13 10 10 7 6 10 11 9 10 10 10 11 10 9 9 9 10 10 9 8 8 8 7 7 12 16 19 21 21 20 21 24 26 26 26 26 29 30 29 28 28 29 31 32 32 32 33 34 34 34 33 32 31 31 31 32 33 34 34
6 5 4 6 6 9 12 13 12 11 7 7 13 19 22 21 17 12 12 18 20 16 14 13 12 15 18 13 11 13 9 8 12 11 10 13 16 15 13 12 12 12 13 14 13 10 8 7 7 8 10 15 18 18 19 19 20 23 25 26 25 24 26 28 28 28 27 27 29 30 30 31 32 32 33 33 32 32 31 31 31 32 32 33 33 33
6 7 5 5 4 7 11 8 5 8 9 8 12 19 21 19 18 18 18 22 20 14 12 14 14 17 20 17 16 16 11 9 12 13 13 15 15 16 15 14 14 14 14 15 14 10 7 5 6 10 15 18 18 15 15 16 19 22 23 23 23 24 26 28 27 27 28 28 29 29 30 30 31 31 32 31 30 30 30 30 31 31 31 31 31 31
7 8 7 5 4 6 8 6 6 9 10 9 12 16 16 18 21 22 22 22 20 17 16 18 22 24 25 21 17 16 16 14 13 15 17 17 15 15 15 13 15 16 16 14 12 7 5 6 8 12 15 17 15 13 13 15 18 20 19 20 22 23 26 28 27 27 27 28 28 28 29 29 29 30 30 30 29 29 28 28 29 29 29 29 29 30
9 8 6 6 7 6 6 9 9 6 3 5 10 10 9 12 16 16 15 19 20 20 18 20 25 27 25 22 18 17 17 15 12 15 17 14 11 11 10 11 15 16 13 10 8 7 8 10 12 12 13 13 12 12 13 15 18 19 18 19 22 23 25 27 26 25 25 26 27 27 28 29 29 29 29 29 28 28 27 27 27 27 27 27 28 28
12 10 7 7 8 7 8 11 10 9 8 8 11 10 8 9 10 10 10 15 17 19 19 20 24 26 24 21 19 17 14 9 11 17 15 11 11 12 12 13 14 12 10 8 9 11 12 12 12 11 10 9 9 11 14 16 18 19 19 19 21 22 24 25 24 23 23 25 26 27 28 28 29 29 28 28 28 27 27 27 27 27 27 26 26 27
13 11 8 9 8 7 9 10 9 11 11 11 17 17 10 8 10 10 9 11 13 15 17 19 23 26 21 18 17 14 8 5 12 16 10 10 13 13 12 12 11 10 9 9 10 10 10 10 10 10 10 9 10 12 14 17 19 20 20 19 21 22 22 21 21 21 23 25 26 27 28 28 29 28 27 27 27 27 27 27 26 27 26 26 26 26
15 11 9 10 9 8 10 9 8 10 8 9 16 15 7 8 8 6 6 10 13 17 15 16 20 21 16 15 16 11 5 5 13 15 7 9 10 8 8 9 9 8 7 8 8 7 9 10 9 9 10 10 11 13 15 17 20 21 21 20 21 21 19 18 19 22 25 25 25 26 27 27 27 27 27 27 27 26 26 26 26 25 25 25 25 24
13 9 9 11 10 11 13 9 6 7 6 7 10 6 4 8 10 8 7 10 11 13 11 13 17 17 15 16 15 10 8 10 13 11 3 5 4 3 5 6 5 4 5 7 8 8 8 9 9 9 10 12 14 15 17 20 22 22 21 20 20 19 18 19 21 23 24 24 24 25 25 25 26 26 26 26 25 25 25 25 25 24 24 24 24 23
9 8 9 10 9 11 14 12 9 6 4 7 8 4 5 8 9 9 11 7 5 5 7 12 15 14 14 15 10 9 12 15 12 4 2 4 3 2 1 1 1 2 2 4 7 8 9 9 9 10 10 12 15 17 20 23 21 20 20 20 19 18 19 20 21 22 22 22 22 23 23 24 24 24 24 24 24 23 24 23 23 24 24 24 23 22
6 6 7 9 9 9 10 10 9 6 5 8 7 3 6 8 8 9 7 2 3 4 5 9 11 12 14 14 11 11 13 11 6 2 3 4 4 4 3 3 3 3 3 5 8 11 11 9 9 10 11 13 17 18 20 22 19 18 19 18 16 17 18 19 19 20 20 20 21 21 22 23 23 22 22 23 22 22 23 22 22 23 23 23 23 22
5 5 6 7 7 7 8 8 7 6 7 11 7 2 5 10 9 6 4 2 3 4 4 6 9 10 11 11 11 10 7 3 2 2 3 3 3 4 4 5 4 5 6 7 8 12 13 11 10 12 13 16 18 19 20 20 19 19 18 16 14 16 16 17 18 18 18 19 19 20 21 21 21 21 21 21 21 21 22 22 21 21 21 22 21 21
4 5 5 6 6 7 8 8 5 4 4 10 10 7 10 12 6 2 4 4 3 4 3 4 6 6 4 5 6 5 3 3 3 2 2 2 3 3 4 5 4 5 6 6 7 13 15 13 12 13 15 17 19 19 19 19 19 18 16 14 14 16 16 16 17 17 18 18 19 19 20 20 20 20 20 20 20 21 21 21 21 21 20 20 20 19
5 4 3 4 5 6 6 5 2 3 2 6 9 7 7 11 8 3 4 6 4 3 3 2 4 4 1 2 3 2 2 4 3 3 3 4 4 4 4 5 5 6 7 7 9 13 15 15 16 16 16 16 17 18 17 17 18 18 16 15 16 16 17 17 18 18 18 19 19 19 19 19 19 19 19 19 20 20 21 21 21 20 19 19 19 19
3 1 0 2 3 5 7 8 7 6 5 5 8 7 4 7 7 4 4 6 3 1 2 2 2 2 2 4 4 3 3 2 2 3 3 3 4 5 5 5 5 7 8 9 11 14 16 19 20 20 18 15 15 16 15 16 17 18 18 17 17 17 18 19 19 19 19 19 19 19 19 19 19 18 18 18 18 19 19 19 20 20 19 19 19 18
2 3 2 3 4 4 5 7 7 8 8 7 7 9 8 7 4 3 4 5 2 2 3 3 3 3 3 5 5 3 3 2 3 4 3 3 5 6 6 6 6 7 8 9 13 17 19 20 19 18 19 16 14 14 15 15 17 18 18 19 19 18 19 20 20 21 21 20 20 20 19 20 20 19 18 19 19 18 18 18 19 20 20 20 19 17
2 4 5 5 5 4 5 9 12 12 10 7 6 6 6 6 5 4 4 5 5 4 4 4 4 3 3 5 5 4 6 6 7 7 4 3 4 5 6 6 6 7 8 12 17 19 20 19 18 18 19 16 15 15 16 16 18 18 18 19 19 20 20 21 21 21 21 21 21 20 20 20 20 20 20 20 19 18 18 18 18 18 19 19 19 18
3 4 4 5 7 7 7 11 14 13 10 9 8 6 4 4 4 4 5 6 7 7 7 7 6 4 4 6 6 6 8 9 9 8 6 4 4 4 5 6 7 8 12 16 18 19 20 20 20 20 19 18 17 18 18 19 20 19 19 19 19 20 22 22 21 21 21 21 21 21 21 20 20 21 21 20 19 18 17 16 16 16 15 14 14 13
4 6 6 6 7 8 7 9 10 9 8 10 9 6 6 6 5 6 9 10 10 10 9 10 8 4 4 5 4 6 9 8 7 8 7 5 4 5 6 7 8 10 15 18 18 18 19 20 21 22 21 19 20 20 20 21 21 20 19 19 19 20 22 22 22 22 21 21 22 22 21 21 21 20 21 21 20 18 15 13 11 11 10 9 9 9
7 9 9 7 7 9 11 12 9 6 7 11 10 8 8 6 5 7 10 11 12 11 9 8 8 8 7 5 4 6 8 7 7 8 7 5 5 6 8 8 8 11 17 20 20 19 20 20 21 22 22 21 22 22 22 22 21 21 20 20 19 20 21 23 24 24 23 22 22 22 21 21 21 21 21 21 20 19 17 15 11 8 8 7 7 8
Wind_Direction
292 194 202 216 202 193 187 152 96 86 82 101 119 164 206 253 262 201 135 50 16 264 257 250 266 273 272 267 265 266 246 241 254 256 257 254 253 253 250 251 247 245 249 252 250 244 232 227 228 225 221 218 215 215 213 211 213 213 214 213 212 213 207 205 203 201 201 202 203 203 203 206 208 211 215 217 220 220 216 211 209 208 208 210 207 204
229 222 221 210 88 111 131 111 110 112 90 106 163 226 229 242 258 137 80 23 102 261 268 271 286 279 275 274 268 265 258 255 251 248 252 253 253 252 249 251 250 250 256 257 248 227 217 222 222 220 218 214 212 212 210 209 208 207 210 211 210 210 205 204 204 201 201 203 204 204 208 212 212 211 210 210 209 208 207 206 206 204 202 204 204 205
207 229 204 111 100 92 96 125 140 130 124 137 163 238 253 250 263 162 76 28 141 242 277 316 297 282 280 277 270 260 253 255 252 247 253 258 258 256 251 251 250 255 258 251 240 211 203 214 215 215 214 213 212 210 207 205 201 200 207 208 204 206 204 202 204 202 202 204 205 207 209 210 208 207 209 210 209 208 210 208 205 203 199 203 208 210
203 239 136 120 136 122 103 138 148 135 177 197 186 218 247 338 274 251 83 75 169 237 296 314 296 281 280 275 266 256 247 256 259 254 257 256 256 258 259 262 259 257 257 253 244 211 193 202 207 210 211 211 209 205 203 200 197 199 205 203 199 204 205 201 202 203 204 205 204 206 207 207 205 207 211 212 213 212 210 206 203 205 204 205 211 212
204 48 107 129 141 137 128 152 170 182 203 209 216 225 238 230 225 260 9 3 222 204 282 297 288 271 263 265 268 262 244 263 260 256 258 249 247 255 261 264 258 253 253 256 254 223 190 198 205 209 210 208 204 203 202 199 199 200 201 200 200 205 206 202 202 203 205 205 203 203 202 202 204 205 206 207 209 210 207 203 203 206 207 206 207 205
219 110 138 133 121 137 143 166 189 197 207 219 220 223 238 254 210 225 356 322 263 224 158 302 286 264 224 262 266 265 273 263 224 223 253 251 244 243 249 254 248 245 244 247 255 245 211 205 205 206 206 205 206 207 205 202 202 201 198 198 200 204 206 205 204 204 206 205 203 201 197 196 196 196 199 202 205 206 203 201 202 204 205 204 200 194
164 133 146 139 146 153 159 189 194 192 208 224 218 224 233 247 92 205 265 283 279 286 150 245 276 277 289 273 266 262 272 273 255 240 253 253 249 242 242 248 244 244 240 235 244 245 231 216 205 205 204 204 209 209 205 202 202 200 197 197 200 204 206 206 206 206 206 206 206 205 203 203 200 198 200 202 204 203 201 200 201 202 202 201 195 189
139 152 161 145 149 159 181 200 182 187 200 192 58 189 187 180 200 207 204 239 286 326 253 187 237 277 276 266 267 263 265 275 275 263 255 246 245 244 244 247 246 248 244 235 238 236 231 223 212 208 207 208 211 206 201 201 201 201 198 198 203 205 206 208 208 208 208 208 208 207 207 209 207 205 204 202 202 202 202 202 203 203 202 198 193 193
137 175 181 167 165 183 191 161 165 181 193 8 83 106 133 148 168 157 179 229 329 321 267 173 166 267 270 233 199 255 256 270 272 267 264 258 248 242 245 250 250 252 250 244 247 242 231 225 219 213 208 209 209 202 200 203 203 201 199 200 203 204 206 208 209 210 209 210 211 208 205 206 206 205 204 201 201 203 205 206 204 203 201 198 197 201
37 213 197 175 180 192 151 39 185 190 176 132 139 101 91 86 75 95 199 176 100 283 261 165 170 257 286 231 161 157 239 254 264 267 271 281 278 254 245 256 258 259 258 251 253 254 244 231 219 209 205 204 203 200 200 202 201 200 199 199 198 200 206 209 210 212 211 210 211 209 205 203 202 202 203 203 202 203 205 206 203 202 202 202 203 205
57 13 312 219 191 150 111 71 14 350 116 144 146 105 94 86 64 79 36 64 238 266 223 157 178 226 294 262 161 158 203 230 257 275 270 252 267 262 256 277 264 250 255 250 251 252 243 235 214 200 199 198 197 198 197 196 197 196 197 198 197 198 206 210 211 212 212 210 208 208 206 203 203 205 206 206 205 204 204 203 202 202 203 206 208 208
118 175 190 217 92 111 116 89 49 56 124 155 151 133 129 121 128 137 106 141 233 252 117 115 185 214 255 251 135 105 314 268 257 277 276 265 253 224 119 241 245 220 267 273 266 254 224 212 201 194 197 193 192 193 193 194 195 197 199 198 197 199 206 211 212 212 213 211 208 208 208 208 211 213 214 213 212 209 206 203 202 202 203 206 209 210
200 204 138 95 196 184 147 107 75 77 217 222 159 163 188 199 197 221 204 178 232 240 57 6 290 222 245 259 290 294 280 262 242 243 259 270 272 257 190 191 219 211 243 258 258 246 220 212 201 197 197 191 191 193 192 192 194 200 204 201 199 203 207 211 212 212 213 213 212 212 211 213 216 219 220 219 218 215 210 205 204 204 204 206 206 208
205 230 140 156 191 216 189 160 150 175 197 198 178 176 195 192 208 228 198 200 265 238 49 337 230 242 264 275 280 270 269 272 259 245 249 257 266 263 229 218 240 240 237 239 249 244 223 214 207 203 200 193 194 193 190 191 194 199 204 204 202 204 207 209 212 213 213 212 214 216 216 216 219 221 221 222 222 218 212 209 209 207 206 206 206 207
216 246 179 173 156 176 197 201 162 149 172 197 188 179 205 197 210 228 200 218 251 118 78 323 215 228 246 314 295 259 274 292 282 269 270 264 263 269 269 250 243 248 247 232 239 244 231 218 211 207 202 197 195 192 190 192 195 199 203 203 201 203 206 208 209 211 212 211 214 217 219 220 222 224 225 225 224 219 214 215 215 211 209 208 208 209
225 264 163 147 124 168 186 213 92 121 160 194 77 189 231 221 193 238 313 156 79 52 185 204 244 240 248 304 290 266 277 282 258 266 272 264 263 271 273 256 228 239 251 232 232 237 225 215 210 205 201 198 196 194 195 195 197 201 202 200 201 203 207 208 208 210 211 212 215 219 220 221 223 224 225 224 221 218 219 221 219 215 214 214 212 210
212 274 69 45 311 174 182 270 113 158 183 160 172 201 225 327 105 156 233 84 87 266 236 189 244 264 282 288 266 246 256 260 261 267 254 258 266 258 262 257 201 227 242 230 233 229 208 202 203 204 200 197 197 196 198 199 200 202 200 198 201 203 208 210 208 210 212 212 215 219 220 221 221 222 223 222 221 221 224 225 221 217 217 217 214 210
211 260 58 83 206 164 1 355 92 359 13 142 188 193 139 22 15 199 235 181 183 247 248 192 235 255 264 273 269 232 251 254 259 263 258 260 259 246 255 254 191 220 232 236 238 225 204 199 198 202 201 200 200 198 199 200 200 202 201 200 201 203 209 211 208 209 212 213 214 217 219 219 220 221 223 223 223 225 226 226 223 219 219 218 214 211
203 238 267 53 248 77 43 220 175 55 24 66 236 179 119 224 210 185 215 223 216 233 242 220 238 249 238 244 264 254 244 244 250 252 252 256 252 249 257 250 208 211 224 238 232 209 202 201 199 199 198 200 201 200 201 200 200 202 203 203 204 206 208 210 210 209 212 215 216 217 219 219 220 221 223 225 225 226 226 225 222 221 221 218 214 211
163 230 231 60 316 22 112 214 202 169 112 30 295 181 324 260 223 189 190 214 229 227 237 250 256 250 232 220 231 243 241 235 236 238 240 247 249 252 257 248 222 217 222 226 213 198 201 200 198 195 193 195 199 201 202 201 202 204 205 205 206 207 207 209 210 207 209 215 217 217 218 219 220 222 224 226 225 226 226 224 222 222 222 220 216 212
143 225 230 95 318 222 186 207 205 182 166 176 196 190 193 203 274 273 229 157 246 236 233 251 264 263 250 178 192 228 238 228 224 231 237 243 248 254 270 276 257 234 228 219 210 220 209 196 191 187 189 195 200 204 204 204 206 207 207 207 207 207 207 207 208 207 209 214 216 217 218 219 221 222 224 225 224 225 225 223 222 223 224 221 218 214
174 205 211 164 183 206 200 206 234 208 185 188 195 195 199 187 164 218 221 171 247 258 230 231 265 268 258 156 194 220 228 226 221 223 231 242 248 250 293 275 254 248 242 233 244 248 242 220 198 183 184 192 198 203 205 206 208 208 208 208 207 208 208 207 207 211 213 214 216 218 219 220 221 223 223 223 222 223 222 221 222 225 225 223 220 217
141 179 215 203 200 206 168 50 356 291 278 244 232 210 210 197 187 212 220 179 170 221 260 323 268 267 255 142 199 223 228 247 238 228 234 247 267 282 278 236 239 250 253 253 268 262 256 254 227 190 180 185 192 199 203 206 208 210 210 209 209 209 209 208 207 213 216 215 216 218 219 220 221 222 222 220 220 220 220 220 223 225 225 223 220 218
111 167 223 231 235 148 63 72 95 17 339 248 247 202 204 222 215 224 246 189 186 184 197 219 241 260 264 140 221 269 297 287 267 240 242 253 271 268 251 230 238 246 237 231 249 249 238 250 242 207 180 182 193 199 203 207 208 209 210 210 211 211 210 208 206 211 215 215 216 218 218 218 219 220 219 219 219 219 218 221 223 225 224 221 219 216
161 191 209 227 240 219 202 202 199 175 183 232 235 190 209 218 196 105 63 233 232 203 207 225 240 253 256 107 211 260 255 261 256 234 236 254 258 248 239 228 233 239 235 230 241 240 229 235 236 217 187 188 199 200 203 207 208 210 211 211 212 212 211 209 208 212 214 213 214 216 216 217 217 217 218 219 219 219 220 221 223 223 223 221 218 214
171 192 182 202 226 226 221 218 212 178 162 214 234 199 207 203 179 172 202 214 229 221 215 225 244 256 255 163 177 227 226 254 259 235 223 245 255 251 240 229 225 225 228 236 243 243 241 241 234 213 194 202 207 205 206 209 211 213 214 214 215 214 210 210 212 213 212 211 213 214 215 216 216 217 218 219 219 220 221 222 222 222 221 220 218 214
128 235 204 213 225 230 240 253 155 126 151 195 216 201 199 200 192 195 214 216 224 234 236 229 232 254 262 250 219 214 212 236 251 242 228 240 252 249 239 239 254 253 238 238 253 251 245 243 234 210 199 207 214 215 215 214 214 214 214 215 218 216 212 212 214 212 212 212 212 213 215 216 218 219 219 220 220 220 221 221 222 221 220 219 217 214
113 226 224 232 244 252 267 283 116 149 191 204 211 205 195 196 195 198 217 225 221 229 244 236 227 245 261 262 250 234 218 226 244 252 251 252 260 263 249 232 254 261 256 248 250 247 241 240 233 210 200 207 216 221 221 220 219 218 218 218 219 217 214 214 214 212 212 213 212 212 215 217 219 221 221 221 222 221 220 221 221 221 220 218 216 215
144 225 224 226 246 255 268 275 215 203 234 218 213 213 199 191 193 201 219 227 224 225 243 252 247 246 255 261 258 248 232 228 232 237 251 275 289 289 278 243 238 239 232 224 227 230 232 234 230 210 198 204 215 220 220 220 220 219 218 219 219 219 217 215 213 212 211 212 212 213 214 216 219 220 222 221 220 219 219 220 221 221 219 218 217 216
138 231 227 222 242 250 257 261 245 233 249 249 236 226 207 197 197 204 219 225 226 232 243 256 258 254 254 258 261 261 245 230 231 225 227 259 268 268 263 252 244 236 226 224 225 226 227 230 229 215 198 203 214 216 215 217 220 220 218 217 218 218 216 214 212 210 210 211 213 214 214 215 216 217 218 218 218 217 218 219 219 218 217 217 217 215
179 213 215 208 236 250 250 253 249 240 243 250 252 241 224 219 214 217 225 228 231 237 240 245 253 258 258 256 261 271 256 214 225 223 222 232 235 239 246 245 245 248 245 239 234 231 229 229 229 219 205 210 217 218 219 221 222 222 221 220 219 217 214 213 210 209 210 211 212 213 214 213 213 213 214 215 216 216 217 217 216 215 215 214 213 212
191 203 189 180 220 245 241 241 246 245 238 246 255 246 233 231 229 227 228 228 231 235 238 242 246 255 260 256 257 260 239 210 224 222 220 233 234 234 241 241 240 243 244 242 236 230 226 222 221 215 212 223 227 225 225 223 220 220 222 222 219 215 211 211 210 209 210 210 211 212 211 210 210 211 212 213 214 214 215 215 213 211 210 210 210 211
187 197 184 186 212 244 240 234 238 242 233 228 238 236 231 231 233 234 232 231 231 230 236 241 237 247 259 262 257 253 235 216 229 223 217 232 237 236 236 236 238 240 242 246 246 240 231 219 213 217 227 237 237 234 233 228 222 224 225 222 217 213 209 208 207 208 209 208 210 209 208 208 208 208 209 211 212 212 212 211 209 209 209 209 210 211
183 199 208 201 212 247 246 232 210 230 236 228 227 230 229 228 227 227 230 232 228 218 225 244 251 254 258 259 258 257 250 235 237 234 229 234 237 238 237 237 241 244 245 245 245 243 239 228 224 230 236 242 245 244 243 237 230 229 225 219 214 211 207 204 204 206 207 208 208 207 206 206 206 206 207 208 208 207 207 207 207 209 209 208 207 207
186 202 216 213 223 250 255 244 225 228 229 230 237 238 233 228 226 227 233 237 233 222 222 236 247 250 253 256 258 261 263 262 258 250 241 236 236 241 243 241 239 240 241 242 240 236 230 227 232 234 236 243 248 246 241 232 225 222 218 213 209 205 202 202 202 204 206 205 205 204 204 204 203 203 204 205 205 205 205 205 206 206 206 205 205 206
207 210 218 221 228 240 245 235 233 244 252 249 253 247 229 225 227 229 240 244 238 229 225 231 240 244 248 252 254 258 265 274 274 259 245 234 231 240 241 236 236 238 241 242 232 224 225 229 232 234 239 247 247 238 229 222 216 210 205 203 201 198 198 199 199 200 202 202 202 202 202 202 201 201 202 202 203 203 203 203 203 204 204 203 205 207
224 222 221 227 225 222 235 238 244 269 277 260 250 238 205 204 212 209 230 245 240 230 226 230 240 244 245 249 254 259 267 279 276 265 249 221 215 226 230 235 241 244 245 239 229 227 231 234 234 236 241 244 235 224 217 211 204 197 192 191 192 192 192 194 195 196 198 199 200 201 201 201 200 199 199 200 200 201 203 204 203 203 203 201 202 204
224 222 217 223 219 212 236 244 242 251 250 239 246 246 222 203 209 202 219 246 250 239 225 224 237 244 246 251 253 253 255 262 267 267 245 195 205 220 225 235 241 239 236 232 227 228 231 232 234 236 232 223 216 210 204 197 191 184 180 180 182 183 184 186 189 193 196 197 199 199 199 201 200 198 197 198 199 201 202 203 202 203 203 202 201 202
218 221 219 226 227 221 231 235 231 240 236 230 247 252 220 186 181 171 214 241 247 247 232 220 235 243 244 248 246 237 218 229 256 265 236 179 195 207 210 222 226 224 228 226 221 224 228 227 223 218 210 200 196 194 190 187 181 175 173 173 175 176 178 180 186 192 195 197 198 199 199 199 198 198 197 198 199 201 202 202 202 202 202 202 203 202
214 217 221 227 230 229 233 235 235 241 234 230 248 256 193 163 143 152 223 236 236 242 223 207 225 234 233 239 239 225 208 221 246 266 238 156 168 187 209 227 224 204 208 215 218 218 213 207 195 185 184 184 183 182 179 177 174 170 169 169 170 174 177 183 189 193 194 195 195 196 197 196 196 197 199 199 198 200 201 201 200 199 198 200 202 203
210 210 216 220 223 225 231 240 246 242 219 227 239 212 159 154 151 190 230 230 207 220 200 197 212 220 225 233 231 219 223 228 237 258 88 118 144 159 178 350 79 140 160 182 191 184 175 175 173 168 169 174 174 173 173 172 167 165 166 166 169 176 182 186 189 189 189 190 191 192 193 194 196 198 198 199 198 197 198 199 200 198 197 197 198 198
209 210 212 214 221 222 222 235 251 250 208 205 216 167 151 176 198 217 229 214 182 207 205 206 210 212 221 229 226 224 230 229 223 190 140 160 167 155 152 138 128 131 135 152 166 163 154 148 148 149 153 162 166 167 170 169 162 159 164 165 169 178 182 184 184 183 184 186 187 188 189 192 195 196 195 196 196 194 193 195 198 198 196 195 193 193
202 210 214 207 213 224 226 226 238 246 206 180 169 135 186 206 223 225 212 197 194 201 215 223 218 218 224 231 235 238 242 247 229 191 178 183 160 144 159 164 155 150 148 150 159 160 152 138 133 141 147 156 161 163 167 166 160 158 161 163 169 177 178 177 177 176 178 180 180 183 186 188 190 192 192 192 192 191 189 189 191 193 193 192 191 190
203 211 230 219 202 211 226 221 217 249 215 177 177 197 208 211 219 190 191 219 212 185 201 235 239 242 245 252 267 282 298 279 252 210 186 195 179 163 160 159 161 159 154 152 157 159 154 140 133 139 146 154 160 162 166 166 159 155 157 161 168 171 168 167 169 168 169 173 176 179 181 183 185 187 188 187 186 185 184 184 185 187 189 191 190 188
215 208 237 245 228 228 244 254 272 318 302 202 212 226 216 217 229 222 219 248 251 195 178 207 246 259 239 228 269 291 271 261 246 212 208 198 180 172 165 161 161 156 150 145 149 155 152 143 138 138 140 149 157 160 165 167 160 153 155 158 161 162 160 160 162 163 166 169 172 175 177 178 180 182 183 183 182 181 181 181 181 182 185 188 188 187
267 277 21 263 279 282 273 269 267 277 300 273 256 272 266 237 246 264 252 254 258 196 188 208 232 227 188 197 216 222 232 246 252 249 240 197 172 169 162 159 154 150 148 143 145 152 150 142 138 136 134 140 152 158 162 165 161 157 155 155 156 157 157 158 159 161 165 166 168 171 172 171 172 175 178 180 181 182 182 181 181 181 182 183 185 186
316 356 355 295 298 301 283 289 296 294 306 311 296 299 297 278 293 334 277 266 279 219 222 241 237 210 184 190 202 232 263 228 205 230 241 206 186 171 160 162 158 152 151 146 147 151 147 139 137 135 133 135 146 156 160 159 158 157 154 152 154 156 157 159 161 161 163 164 164 167 169 168 168 170 173 176 178 181 182 183 183 183 181 182 184 185
304 352 346 303 283 278 280 298 304 294 285 278 267 276 289 291 313 328 292 293 306 280 262 269 252 230 222 215 211 246 270 241 206 202 208 205 195 172 162 168 161 151 149 149 150 151 147 143 141 138 135 136 143 152 156 153 151 154 153 152 156 158 159 161 162 161 161 163 163 165 168 170 170 169 171 174 176 179 180 181 184 186 187 189 192 193
280 300 298 277 277 281 277 283 291 291 285 271 254 240 232 236 261 284 281 280 280 274 275 273 254 228 244 250 230 219 232 228 207 195 189 182 182 175 165 160 155 151 152 152 154 154 150 147 145 142 139 140 143 149 152 149 149 152 154 155 160 163 161 160 160 160 161 162 164 166 168 171 171 171 171 171 173 175 178 182 187 190 193 197 198 197
240 253 259 266 277 280 275 276 285 290 287 280 273 264 254 233 222 250 265 262 258 256 259 266 268 261 253 258 241 218 225 224 201 187 180 174 178 174 162 157 153 153 155 154 154 153 151 149 149 145 141 141 145 149 150 149 150 153 156 159 164 167 165 161 159 159 161 163 166 167 168 170 171 172 172 171 170 170 169 171 181 188 190 190 187 187
232 239 248 254 257 263 270 274 274 266 271 278 278 272 271 263 238 243 252 254 256 256 248 249 260 261 254 244 214 217 230 221 189 178 172 162 160 156 158 165 160 154 157 157 153 149 149 151 151 147 143 143 147 150 150 151 153 155 158 162 167 170 169 164 161 160 162 166 168 169 170 172 172 172 173 172 171 166 155 146 144 156 167 168 166 174